Location: Bacharowice
(49.9333°N, 19.5833°E)
Time: 10:47:36
(UTC+00:00)

Envisat - Pass Details

Date: 08 October 2022
Orbit: 763 x 765 km, 98.2° (Epoch: 01 December)

Event Time Altitude Azimuth Distance (km) Brightness Sun altitude
Rises 02:30:09 0° 20° (NNE) 3,246 6.8 -23.3°
Reaches altitude 10° 02:32:37 10° 28° (NNE) 2,315 6.1 -23.0°
Maximum altitude 02:37:23 39° 97° (E) 1,140 4.3 -22.2°
Drops below altitude 10° 02:42:07 10° 166° (SSE) 2,297 5.4 -21.5°
Sets 02:44:33 0° 174° (S) 3,218 6.1 -21.1°
